Location: *
(40.7873°S, 98.7174°E)
Time: 08:47:19
(UTC+00:00)

Cosmos 1825 Rocket - Pass Details

Date: 24 May 2022
Orbit: 603 x 630 km, 82.5° (Epoch: 04 July)

Event Time Altitude Azimuth Distance (km) Brightness Sun altitude
Rises 10:40:28 0° 344° (NNW) 2,856 7.6 -6.0°
Reaches altitude 10° 10:42:41 10° 340° (NNW) 1,964 6.8 -6.4°
Maximum altitude 10:46:59 59° 260° (W) 719 4.2 -7.1°
Drops below altitude 10° 10:51:22 10° 180° (S) 2,008 6.0 -7.9°
Sets 10:53:40 0° 176° (S) 2,926 6.8 -8.3°
